Regional Weather Roundup
Issued by NWS San Angelo, TX

Home | Current Version | Previous Version | Text Only | Print | Product List | Glossary Off
Versions: 1 2 3 4 5 6 7 8 9 10 11 12 13 14 15 16 17 18 19 20 21 22 23 24 25 26 27 28 29 30 31 32 33 34 35 36 37 38 39 40 41 42 43 44 45 46 47 48 49 50

000
ASUS44 KSJT 241810
RWRSJT
WEST CENTRAL TEXAS REGIONAL WEATHER ROUNDUP
NATIONAL WEATHER SERVICE SAN ANGELO TX
100 PM CDT FRI OCT 24 2014

NOTE: "FAIR" INDICATES FEW OR NO CLOUDS BELOW 12,000 FEET WITH NO
SIGNIFICANT WEATHER AND/OR OBSTRUCTIONS TO VISIBILITY.

TXZ049-054-064>066-071>073-076>078-098-099-113-114-127-128-139-140-
154-155-168>170-241900
...LOCATIONS ACROSS WEST CENTRAL TEXAS...

CITY           SKY/WX    TMP DP  RH WIND       PRES   REMARKS
SAN ANGELO     SUNNY     83  58  42 SW10      30.17F
ABILENE        SUNNY     81  61  50 S13       30.16F
DYESS AFB      SUNNY     83  60  45 SW8       30.14F
JUNCTION       SUNNY     81  57  43 W10       30.18F
SWEETWATER     SUNNY     79  58  47 SW12      30.21F
BROWNWOOD      SUNNY     81  59  47 SW8       30.16F
COLEMAN        CLEAR     81  61  50 SW9       30.17F
SONORA         SUNNY     79  57  47 S8G14     30.24F
OZONA          FAIR      77  61  57 S10       30.23F
BRADY          SUNNY     82  57  42 S8        30.18F
$$

TEXAS PANHANDLE/OKLAHOMA PANHANDLE

CITY           SKY/WX    TMP DP  RH WIND       PRES   REMARKS
AMARILLO       SUNNY     80  46  30 SW9       30.16F
BORGER         SUNNY     79  49  34 W7        30.13F
CANADIAN       SUNNY     78  61  55 CALM      30.09F
DALHART        SUNNY     82  40  22 S8        30.18F
DUMAS          CLEAR     81  46  29 SW6       30.16F
GUYMON         NOT AVBL
HEREFORD       CLEAR     81  47  30 S5        30.18F
PAMPA          CLEAR     78  53  41 W6        30.14F
PERRYTON       SUNNY     80  52  37 SW6       30.11F
$$

SOUTHERN PANHANDLE/SOUTH PLAINS/ROLLING PLAINS

CITY           SKY/WX    TMP DP  RH WIND       PRES   REMARKS
LUBBOCK        SUNNY     80  58  46 SW14      30.18F
SNYDER         SUNNY     71  63  77 SW9       30.19F
CHILDRESS      SUNNY     82  58  43 SW10      30.11F
SEMINOLE       CLEAR     79  56  45 SW12      30.21F
$$

PERMIAN BASIN

CITY           SKY/WX    TMP DP  RH WIND       PRES   REMARKS
MIDLAND        SUNNY     83  53  35 S9        30.18F
ODESSA         SUNNY     81  55  40 SW10      30.20F
WINK           SUNNY     77  55  46 SW7       30.18F
$$

FAR WEST/SOUTHWEST MOUNTAINS/TRANS PECOS

CITY           SKY/WX    TMP DP  RH WIND       PRES   REMARKS
ALPINE         CLEAR     77  46  33 CALM      30.33F
DRYDEN           N/A     77  64  64 S7        30.18F
EL PASO        SUNNY     74  52  46 VRB3      30.26F
FORT STOCKTON  SUNNY     82  55  39 CALM      30.20F
GUADALUPE PASS SUNNY     73  51  46 SW17      30.34F
MARFA          SUNNY     73  48  40 SE3       30.33F
PECOS          CLEAR     76  58  53 CALM      30.19F
$$

DALLAS/FORT WORTH METROPLEX

CITY           SKY/WX    TMP DP  RH WIND       PRES   REMARKS
DFW AIRPORT    MOSUNNY   78  57  48 S12       30.14F
FTW MEACHAM    SUNNY     80  60  50 S9        30.13F
DAL-EXECUTIVE  SUNNY     79  56  45 S8        30.15F
GRAND PRAIRIE  SUNNY     79  59  50 MISG      30.16F
ADDISON        MOSUNNY   77  55  47 S9        30.16
MESQUITE       CLEAR     75  54  46 S9        30.16F
LANCASTER      CLEAR     76  54  45 S7        30.17F
$$

NORTH CENTRAL TEXAS

CITY           SKY/WX    TMP DP  RH WIND       PRES   REMARKS
SHRMAN/DENISON CLEAR     78  62  57 S10G16    30.14F
GAINESVILLE    SUNNY     77  61  56 S10       30.15F
BRIDGEPORT     CLEAR     82  64  52 SW7       30.14F
DENTON         SUNNY     78  59  51 S9        30.13F
WAXAHACHIE     CLEAR     78  58  50 S9        30.17F
GRANBURY       CLEAR     82  62  49 S3        30.15F
$$

WESTERN NORTH TEXAS

CITY           SKY/WX    TMP DP  RH WIND       PRES   REMARKS
WICHITA FALLS  SUNNY     81  63  54 SW13      30.10F
VERNON         CLEAR     84  61  45 SW9       30.10F
BRECKENRIDGE   CLEAR     83  60  45 SW5       30.13F HAZE
COMANCHE       SUNNY     82  62  50 SW8       30.16F
$$

CENTRAL AND SOUTH CENTRAL TEXAS

CITY           SKY/WX    TMP DP  RH WIND       PRES   REMARKS
AUSTIN/BERGSTM MOSUNNY   80  60  50 CALM      30.16F
WACO           SUNNY     78  57  48 S10       30.16F
HILLSBORO      CLEAR     79  56  43 S9        30.15F
TEMPLE         SUNNY     77  55  47 SE5       30.16F
KILLEEN-GRAY   SUNNY     80  60  50 SE5       30.16F
FORT HOOD      SUNNY     83  60  45 SE6       30.16F
GEORGETOWN     SUNNY     79  61  53 S5        30.17F
LAGO VISTA     FAIR      80  58  47 SW5       30.18F
SAN MARCOS     SUNNY     81  57  44 CALM      30.18F
NEW BRAUNFELS  SUNNY     82  57  42 CALM      30.15F
RANDOLPH AFB   SUNNY     82  57  43 NW5       30.17F
SAN ANTONIO    SUNNY     82  58  43 VRB3      30.17F
STINSON        SUNNY     83  58  42 VRB3      30.14F
PLEASANTON     NOT AVBL
LA GRANGE      SUNNY     79  59  50 CALM      30.15F
GIDDINGS       CLEAR     78  56  46 CALM      30.20F
$$

EAST TEXAS

CITY           SKY/WX    TMP DP  RH WIND       PRES   REMARKS
PARIS          SUNNY     73  55  53 SW5       30.17F
CLARKSVILLE    NOT AVBL
TYLER          SUNNY     74  55  51 CALM      30.16F
LONGVIEW       SUNNY     74  51  44 CALM      30.16F
PALESTINE      CLEAR     74  56  55 CALM      30.18F
NACOGDOCHES    SUNNY     72  52  49 CALM      30.17F
$$

TEXAS HILL COUNTRY AND EDWARDS PLATEAU

CITY           SKY/WX    TMP DP  RH WIND       PRES   REMARKS
LLANO          NOT AVBL
HORSESHOE BAY  FAIR      81  58  45 CALM      30.17F
KERRVILLE      SUNNY     79  61  53 W5        30.20F
FREDERICKSBRG  SUNNY     78  59  51 W5        30.19F
ROCKSPRINGS    CLEAR     79  57  47 S8        30.23F
HONDO          SUNNY     78  59  51 SW5       30.19F
UVALDE         CLEAR     81  61  50 SW7       30.18F
DEL RIO        SUNNY     78  63  59 VRB6      30.16F
$$

SOUTHEAST TEXAS

CITY           SKY/WX    TMP DP  RH WIND       PRES   REMARKS
COLLEGE STN    SUNNY     76  53  44 NE3       30.17F
CALDWELL       CLEAR     75  54  46 CALM      30.20F
CROCKETT       CLEAR     77  55  47 N3        30.19F HAZE
BRENHAM        SUNNY     78  54  42 CALM      30.18F
HUNTSVILLE     SUNNY     75  50  41 NW5       30.17F
CONROE         SUNNY     75  50  41 NW5       30.16F
HOUSTON BUSH   SUNNY     75  52  44 N5        30.15F
HOUSTON HOBBY  MOSUNNY   75  50  41 VRB6      30.15F
PERLAND        SUNNY     76  45  33 VRB6      30.16F
WHARTON        CLEAR     79  48  34 N6        30.16F
$$

THE UPPER TEXAS COAST

CITY           SKY/WX    TMP DP  RH WIND       PRES   REMARKS
ORANGE         CLEAR     72  48  43 N6        30.16F
PORT ARTHUR    SUNNY     76  51  41 N9        30.13F
GALVESTON      SUNNY     72  55  55 N9        30.15F
ANGLETON       SUNNY     76  50  40 N8        30.14F
BAY CITY         N/A     77  54  44 N7        30.14F
$$

TEXAS COASTAL BEND, RIO GRANDE PLAINS DEEP SOUTH TEXAS

CITY           SKY/WX    TMP DP  RH WIND       PRES   REMARKS
VICTORIA       SUNNY     84  55  36 NE8       30.15F
BEEVILLE       FAIR      83  57  41 N6        30.15F
ROCKPORT       SUNNY     81  59  47 E9        30.14F
PORT ARANSAS   CLEAR     79  58  48 NE7       30.14F
PORT LAVACA    CLEAR     79  57  46 NE5       30.15F
CORPUS CHRISTI SUNNY     81  62  52 VRB6      30.14F
KINGSVILLE NAS MOSUNNY   85  65  51 E7        30.14F
COTULLA        SUNNY     85  60  42 CALM      30.16F
LAREDO         SUNNY     83  62  48 CALM      30.17F
BROWNSVILLE    MOSUNNY   85  64  49 N8        30.12F
PORT ISABEL    PTSUNNY   81  64  56 NE8       30.12F
HEBBRONVILLE   CLEAR     83  56  40 E9        30.16F
MCALLEN        SUNNY     83  61  47 NE6       30.14F
WESLACO        MOSUNNY   84  60  44 NE8       30.13F
FALFURRIAS     CLEAR     82  62  51 N6        30.14F
EDINBURG       CLEAR     84  62  46 N7        30.13F
$$



USA.gov is the U.S. government's official web portal to all federal, state and local government web resources and services.